Location: ??????
(41.3164°N, 22.6615°E)
Time: 01:11:52
(UTC+00:00)

BEESAT 2 - Pass Details

Date: 29 June 2022
Orbit: 481 x 508 km, 64.9° (Epoch: 07 August)

Event Time Altitude Azimuth Distance (km) Brightness Sun altitude
Rises 19:22:31 0° 317° (NW) 2,624 ? -11.9°
Reaches altitude 10° 19:24:53 10° 306° (NW) 1,735 ? -12.2°
Maximum altitude 19:28:15 29° 245° (WSW) 967 ? -12.6°
Enters shadow 19:31:29 11° 186° (S) 1,683 ? -13.0°
